STARLINK-35648

Last updated on Tue Dec 16 2025 00:02:05 GMT+0000 (Coordinated Universal Time)

1 66482U 25262AC 25349.24821142 -.00374510 00000+0 -83047-2 0 9995 2 66482 43.0002 56.3758 0001160 263.8619 96.2107 15.44387425 5793
UTC large
Height (km)
Speed (km/s)
/
Latitude / Longitude
Inclination (degrees)
Orbital Period (minutes)
Azimuth
Elevation
Range (km)
Doppler Factor

Next 0 passes for location: London (51.5072 / 0.1276)

Sorry there are no passes over London.